Tracking 20092 objects as of 14-Dec-2019
HD Live streaming from Space Station
objects crossing your sky now

OPS 3367 A

Track OPS 3367 A now!
10-day predictions
OPS 3367 A is classified as:


NORAD ID: 734
Int'l Code: 1964-002B
Perigee: 792.7 km
Apogee: 812.6 km
Inclination: 99.1 °
Period: 100.8 minutes
Semi major axis: 7173 km
RCS: 0.3359 m2 (medium)
Launch date: January 19, 1964
Source: United States (US)
Launch site: AIR FORCE WESTERN TEST RANGE (AFWTR)
aabbcc
Your satellite tracking list
Your tracking list is empty




NASA's NSSDC Master Catalog

Two Line Element Set (TLE):
1   734U 64002B   19347.45101983 -.00000030  00000-0  73543-5 0  9992
2   734  99.1111 150.7224 0013876 226.8033 133.1989 14.28862696909237
Source of the keplerian elements: AFSPC